Location: Unspecified
(0.0000°N, 0.0000°E)
Time: 12:50:11
(UTC+00:00)

Tiangong - Pass Details

Date: 02 December 2021
Orbit: 379 x 385 km, 41.5° (Epoch: 08 December)

Event Time Altitude Azimuth Distance (km) Brightness Sun altitude
Rises 18:29:31 0° 256° (WSW) 2,250 7.1 -9.2°
Reaches altitude 10° 18:32:20 10° 284° (WNW) 1,394 4.8 -9.9°
Maximum altitude 18:34:02 14° 317° (NW) 1,192 3.8 -10.3°
Drops below altitude 10° 18:35:44 10° 350° (N) 1,389 3.8 -10.7°
Enters shadow 18:37:29 - 10° (N) 1,878 4.2 -11.1°
